Погода в Мокроусово

Россия / Республика Башкортостан     54°34′00″N   55°56′08″E
темп.,
°C
ветер,
м/с
пор.,
м/с
влажн.,
%
обл.,
%
осадки,
мм/ч
давл.,
гПа
погр.,
м
16 апреля, пт
пт1623:00+12ююз336266 0.0 102127
02:00+10ю226613 0.0 102111
05:00+8ю227052 0.0 102110
08:00+9вюв1168100 0.0 102110
11:00+14всв115382 0.0 1021311
14:00+17ссв334566 0.0 1021807
17:00+18ссв444624 0.0 10201129
20:00+13ссв68745 0.0 1021357
17 апреля, сб
сб1723:00+9ссв58835 0.0 1022253
02:00+7ссв368621 0.0 1023189
05:00+7с238598 0.0 1023135
08:00+7с238298 0.0 1024162
11:00+10с337123 0.0 1024436
14:00+14ссв44565 0.0 10231025
17:00+15ссв44453 0.0 10221349
20:00+12с48475 0.0 1022211
18 апреля, вс
вс1823:00+8с48545 0.0 1023233
02:00+6с38615 0.0 1023188
05:00+4с35672 0.0 102390
08:00+5с35640 0.0 1024198
11:00+10с45480 0.0 1023996
14:00+12ссв56405 0.0 10231598
17:00+13ссв563953 0.0 10231888
20:00+9св685838 0.0 1024739
19 апреля, пн
пн1923:00+5св6107212 0.0 1026429
02:00+4в597049 0.0 1027492
05:00+4вюв61053100 0.0 1029776
08:00+2вюв6956100 0.0 1031864
11:00+5вюв6741100 0.0 10321187
14:00+7в5541100 0.0 10321601
17:00+8в443768 0.0 10311788
20:00+6вюв464291 0.0 1032268
20 апреля, вт
вт2023:00+3вюв511420 0.0 1034530
02:00+1вюв510480 0.0 1036394
05:00−1вюв49510 0.0 1037313
08:00+1юв69380 0.0 1038622
11:00+5вюв56290 0.0 10371081
14:00+8вюв45240 0.0 10361418
17:00+10в45230 0.0 10341476
20:00+8всв35360 0.0 103495